Location: Beccas
(43.4309°N, 0.1528°E)
Time: 20:50:52
(UTC+00:00)

Okean O Rocket - Pass Details

Date: 15 October 2021
Orbit: 623 x 643 km, 98.2° (Epoch: 29 November)

Event Time Altitude Azimuth Distance (km) Brightness Sun altitude
Rises 19:10:47 0° 201° (SSW) 2,892 5.2 -21.6°
Reaches altitude 10° 19:13:26 10° 217° (SW) 1,990 4.5 -22.0°
Maximum altitude 19:16:41 21° 266° (W) 1,424 4.2 -22.6°
Drops below altitude 10° 19:19:58 10° 315° (NW) 2,003 4.9 -23.2°
Sets 19:22:39 0° 332° (NNW) 2,917 5.6 -23.7°
